#timestamp,LO_Frequency,Hit 
1502618415.2,286047001.6,N
1502618435.0,286047000.9,N
1502618435.9,286047000.9,N
1502618455.8,286047001.7,N
1502618475.6,286046998.4,N
1502618495.4,286047002.1,N
1502618515.3,286046999.8,N
1502618535.1,286046998.5,N
1502618536.0,286046998.5,N
1502618555.8,286047003.8,N
1502618575.7,286047003.3,N
1502618595.5,286047002.9,N
1502618615.3,286047007.6,P
1502618635.2,286047008.9,N
1502618655.9,286047005.1,N
1502618675.7,286046998.6,N
1502618695.6,286046996.9,N
1502618715.4,286047001.0,N
1502618735.2,286047002.2,N
1502618755.1,286046999.8,N
1502618756.0,286046999.8,N
1502618775.8,286047002.2,N
1502618795.6,286047003.9,N
1502618815.5,286047004.8,N
1502618835.3,286047009.1,N
1502618855.1,286047008.6,N
1502618875.8,286047001.8,N
1502618895.7,286047002.1,N
1502618915.5,286047001.1,N
1502618935.4,286047000.7,N
1502618955.2,286047000.7,N
1502618975.0,286046999.6,N
1502618995.4,286047000.8,N
1502619015.2,286046998.8,N
1502619035.1,286047000.6,N
1502619036.0,286047000.6,N
1502619055.8,286047005.7,N
1502619075.6,286047005.8,N
1502619095.4,286047004.1,N
1502619115.3,286047004.3,N
1502619135.1,286047001.6,N
1502619155.8,286047001.0,N
1502619175.7,286046998.3,N
1502619195.5,286046998.8,N
1502619215.3,286047001.5,N
1502619235.2,286047001.9,N
1502619255.0,286047002.7,N
1502619255.9,286047002.7,N
1502619275.7,286046997.8,N
1502619295.6,286047001.0,N
1502619315.4,286047005.6,N
1502619335.2,286047004.0,N
1502619355.1,286046999.9,N
1502619356.0,286046999.9,N
1502619375.8,286047003.1,N
1502619395.9,286047002.1,N
1502619415.7,286047000.0,N
1502619435.6,286046999.5,N
1502619455.4,286047002.3,N
1502619475.2,286047004.2,N
1502619495.1,286047000.2,N
1502619496.0,286047000.2,N
1502619515.8,286047000.3,N
1502619535.6,286047000.1,N
1502619555.5,286047002.3,N
1502619575.3,286047006.0,N
1502619595.1,286047003.1,N
1502619615.9,286047002.5,N
1502619635.7,286047003.8,N
1502619655.5,286047006.3,P
1502619675.4,286047004.0,N
1502619695.2,286047004.3,N
1502619715.0,286047002.4,N
1502619715.9,286047002.4,N
1502619735.8,286047002.5,N
1502619755.6,286047002.6,N
1502619775.4,286047002.4,N
1502619795.2,286047001.7,N
1502619815.1,286047004.6,P
1502619816.0,286047004.6,P
1502619835.8,286047005.5,P
1502619855.7,286047003.0,P
1502619875.5,286047002.7,P
1502619895.3,286047002.4,P
1502619915.2,286046999.9,N
1502619935.2,286046999.0,N
1502619955.9,286046997.8,N
1502619975.7,286046996.0,N
1502619995.6,286046996.3,N
1502620015.4,286046994.1,N
1502620035.2,286046993.6,N
1502620055.9,286046992.4,N
1502620075.7,286046992.4,N
1502620095.6,286046990.1,N
1502620115.4,286046991.1,N
1502620135.2,286046990.4,N
1502620155.1,286046996.2,N
1502620156.0,286046996.2,N
1502620175.8,286046996.5,N
1502620195.6,286046996.7,N
1502620215.5,286046996.8,N
1502620235.3,286046996.8,N
1502620255.1,286046997.7,N
1502620275.8,286047002.4,N
1502620295.7,286047002.5,N
1502620315.5,286047000.3,N
1502620335.3,286047002.0,N
1502620355.2,286047002.2,N
1502620375.9,286047005.6,N
1502620395.7,286047002.5,N
1502620415.6,286047002.6,N
1502620435.4,286047000.9,N
1502620455.2,286046998.4,N
1502620475.1,286046998.0,N
1502620476.0,286046998.0,N
1502620495.8,286046995.7,N
1502620515.6,286046997.0,N
1502620535.5,286046999.2,N
1502620555.7,286046999.3,N
1502620575.5,286046999.7,N
1502620595.3,286047002.3,N
1502620615.2,286047004.3,N
1502620635.0,286047000.6,N
1502620635.9,286047000.6,N
1502620655.7,286046999.9,N
1502620675.6,286047002.3,N
1502620695.4,286046995.0,N
1502620715.2,286046999.6,N
1502620735.1,286047000.1,N
1502620736.0,286047000.1,N
1502620755.8,286046999.9,N
1502620775.6,286047003.1,N
1502620795.5,286047001.6,N
1502620815.3,286047003.1,N
1502620835.1,286047003.7,N
1502620855.9,286047003.6,N
1502620875.7,286047002.5,N
1502620895.5,286047000.3,N
1502620915.4,286046999.9,N
1502620935.2,286047002.5,N
1502620955.0,286047001.2,N
1502620955.9,286047001.2,N
1502620975.8,286046996.7,N
1502620995.6,286047001.0,N
1502621015.4,286047002.0,N
1502621035.3,286047001.5,N
1502621055.1,286046999.0,N
1502621056.0,286046999.0,N
1502621075.8,286046997.8,N
1502621095.6,286046995.8,N
1502621115.5,286046993.3,P
1502621135.3,286046995.7,N
1502621155.2,286046994.6,N
1502621175.9,286046993.4,N
1502621195.7,286046997.4,N
1502621215.5,286046997.9,N
1502621235.4,286046998.0,N
1502621255.2,286046993.3,N
1502621275.0,286046993.5,N
1502621275.9,286046993.5,N
1502621295.8,286046996.1,N
1502621315.6,286046994.9,N
1502621335.4,286046998.7,N
1502621355.3,286046995.4,N
1502621375.1,286046997.7,N
1502621395.8,286046994.9,N
1502621415.7,286046994.9,N
1502621435.5,286046995.9,N
1502621455.3,286046997.4,N
1502621475.2,286046997.0,N
1502621495.9,286046997.0,N
1502621515.7,286046995.9,N
1502621535.6,286046994.2,P
1502621555.4,286047001.1,N
1502621575.2,286047000.2,N
1502621595.1,286047002.1,N
1502621596.0,286047002.1,N
1502621615.8,286047005.8,N
1502621635.6,286047009.1,N
1502621655.5,286047008.0,N
1502621675.3,286047005.3,N
1502621695.1,286047004.3,N
1502621715.8,286047000.0,N
1502621735.7,286047000.4,N
1502621755.5,286047000.0,N
1502621775.3,286046999.9,N
1502621795.2,286047003.1,N
1502621815.9,286047005.8,N
1502621835.7,286047002.7,N
1502621855.6,286047002.1,N
1502621875.4,286047003.2,N
1502621895.2,286047002.6,N
1502621915.1,286047001.0,N
1502621916.0,286047001.0,N
1502621935.8,286047000.3,N
1502621955.6,286046996.6,N
1502621975.5,286046998.4,N
1502621995.3,286046999.7,N
